Wind_Speed
7 3 7 12 9 6 4 1 2 4 5 2 6 7 9 20 13 11 13 29 30 25 19 14 10 9 8 9 13 15 19 24 26 27 29 32 34 35 37 37 36 35 29 25
4 7 14 9 7 8 4 2 4 6 3 2 5 11 10 9 10 17 22 33 30 26 24 19 13 7 8 10 11 16 20 24 27 28 25 28 31 34 34 38 41 41 35 31
7 8 6 7 7 6 3 4 4 7 3 3 5 10 6 6 8 16 23 26 32 35 29 20 12 7 5 7 13 19 24 23 26 28 29 31 34 36 38 40 42 38 36 31
7 9 6 6 7 6 4 4 1 4 4 3 4 6 6 8 14 8 19 27 38 32 24 17 14 7 5 10 15 20 22 27 29 30 31 33 32 35 34 35 37 38 35 36
8 11 6 6 6 7 6 6 4 2 1 2 3 2 8 5 7 10 10 28 34 28 22 17 11 5 6 15 21 24 26 28 30 32 31 32 35 35 35 33 35 38 38 37
8 13 4 5 1 1 4 5 7 5 3 2 6 8 6 3 5 3 7 27 28 25 17 11 7 5 12 19 21 22 24 26 30 32 34 35 34 37 38 35 35 39 40 38
3 4 5 7 5 0 6 6 3 4 2 6 3 4 9 11 8 9 14 28 26 17 11 7 4 10 14 18 19 20 24 29 32 35 38 35 37 37 40 39 35 34 36 38
4 7 5 4 9 11 7 9 6 7 3 4 6 6 5 6 9 24 30 23 16 12 6 5 8 10 13 14 16 21 27 32 36 39 39 35 32 31 33 35 38 38 38 40
7 8 7 2 4 10 4 5 8 3 1 1 4 5 4 2 6 11 16 15 15 10 11 11 8 8 9 13 20 26 30 34 36 38 40 40 36 33 35 38 39 42 43 43
8 11 5 4 6 1 5 5 4 2 3 5 5 5 5 5 4 4 6 12 16 14 15 9 7 7 12 19 24 26 31 32 35 40 40 35 31 29 34 38 37 37 43 46
4 5 6 6 6 9 2 2 3 4 5 5 1 6 4 7 9 9 9 12 15 18 13 9 10 13 16 19 24 27 29 32 36 42 40 38 34 33 34 36 37 36 38 39
6 5 5 11 4 9 8 9 7 5 5 4 4 6 4 8 8 7 8 12 11 13 10 9 11 12 15 20 24 26 31 34 39 39 38 34 34 32 34 36 37 36 36 35
4 2 1 8 6 3 5 6 6 4 4 9 5 6 2 6 5 13 9 7 14 15 12 10 9 12 19 21 23 27 30 35 40 42 37 31 32 32 33 34 37 35 34 33
17 7 9 13 9 5 4 7 14 12 5 9 16 10 6 9 10 17 11 12 15 13 10 7 10 16 20 23 24 29 33 38 43 38 33 32 32 33 36 33 35 35 34 33
7 7 8 9 10 8 7 6 7 10 15 10 12 17 13 16 18 28 13 15 14 10 7 9 14 19 20 22 26 30 36 40 39 35 33 33 31 33 35 37 36 36 35 35
6 6 7 18 14 12 16 7 9 14 11 12 13 22 8 21 19 12 16 12 10 7 8 11 16 17 20 22 27 33 38 41 35 34 34 35 34 36 35 37 36 38 40 36
3 4 6 12 15 12 10 21 19 14 16 10 15 12 5 4 8 15 14 14 11 8 8 12 14 17 18 22 29 34 39 37 32 33 34 35 35 35 36 35 36 37 36 34
12 11 7 5 4 14 12 7 15 21 24 20 5 7 9 11 13 15 13 13 9 6 9 9 14 16 18 23 29 35 38 32 32 33 35 35 35 35 34 33 36 38 36 32
19 13 7 6 12 5 8 14 16 14 15 14 13 11 13 18 16 10 12 6 2 6 7 11 14 16 18 24 31 33 33 31 31 33 34 35 35 35 34 35 36 36 36 31
22 22 12 7 7 12 13 17 20 2 7 7 11 13 10 14 3 4 12 3 5 3 8 11 12 14 19 27 29 30 29 30 31 32 33 33 34 35 36 32 30 29 27 26
4 13 21 17 7 7 7 6 17 13 8 10 21 21 15 5 5 7 8 4 3 6 7 9 12 15 21 27 27 28 28 30 30 31 31 31 33 32 29 27 22 18 18 17
6 5 7 12 11 22 12 7 13 7 17 20 23 20 16 14 13 11 5 5 5 6 6 8 12 16 20 23 25 29 28 30 30 30 30 30 30 28 29 26 20 19 16 17
4 2 3 2 5 6 7 14 18 21 27 21 23 20 16 19 18 12 8 8 6 4 6 8 12 14 20 20 23 29 28 29 30 29 29 29 27 27 27 28 18 25 23 27
3 4 3 6 9 12 9 4 20 24 27 25 20 19 19 19 17 12 12 9 5 4 6 9 10 16 21 18 22 26 27 27 27 30 29 29 27 24 19 18 23 24 24 29
5 4 3 4 18 20 18 10 6 19 25 23 18 18 20 19 16 13 11 6 1 2 5 5 11 14 20 19 22 24 25 25 27 28 29 28 27 24 18 17 17 15 14 17
10 7 4 4 13 9 13 15 7 15 28 22 21 20 19 16 17 15 9 4 0 1 2 5 8 12 17 19 21 22 23 23 24 27 29 26 26 25 22 20 16 13 13 9
Wind_Direction
274 119 225 232 208 212 237 198 259 250 263 223 214 248 255 255 244 228 204 183 173 177 175 186 209 248 277 295 304 313 316 317 316 318 322 319 315 313 309 309 309 301 294 285
341 234 241 236 216 200 191 218 260 292 230 170 289 283 240 216 226 236 229 187 180 170 170 175 179 198 258 295 311 315 314 313 313 311 312 308 308 308 308 305 303 305 293 285
204 249 239 218 209 198 219 194 222 231 319 354 335 287 271 268 247 253 240 218 205 183 172 170 171 196 232 284 302 306 310 310 311 310 304 298 297 296 299 304 306 303 297 282
251 286 279 268 220 170 228 219 93 44 47 233 77 283 273 279 282 254 251 213 190 176 175 171 165 184 253 295 309 311 306 308 312 314 305 303 300 301 303 304 305 302 295 291
253 311 349 332 225 175 225 115 111 113 48 346 188 295 274 264 273 251 201 175 172 171 169 157 167 192 295 312 310 308 305 306 312 314 312 304 298 296 295 297 300 299 294 291
235 266 238 233 49 94 126 66 35 50 101 303 226 179 271 215 215 206 150 162 162 153 151 161 183 263 290 297 299 297 303 310 313 313 312 307 301 297 295 291 291 291 292 292
292 228 241 185 204 154 85 65 349 328 349 232 275 170 242 304 303 177 158 150 147 148 154 159 242 270 284 291 286 298 308 314 318 318 315 306 301 295 290 289 289 292 287 287
197 309 185 179 190 196 178 149 156 228 217 269 300 247 279 332 55 103 127 135 139 141 168 219 239 270 281 274 292 308 315 317 319 319 318 311 307 303 294 288 283 280 281 285
194 247 233 173 181 160 183 157 178 100 297 20 247 295 319 324 66 101 126 142 162 181 204 223 242 260 256 293 307 313 315 317 320 324 317 313 306 301 297 293 286 276 276 278
228 259 214 167 104 69 142 166 81 7 216 248 277 256 227 195 180 160 170 183 198 207 193 190 230 251 290 302 306 312 315 321 322 324 323 312 307 303 301 299 291 287 276 273
161 165 275 131 182 169 143 177 90 129 149 182 244 267 225 195 178 181 204 220 217 199 189 210 260 275 287 298 308 315 321 324 323 322 321 315 308 308 307 305 299 293 285 275
186 159 216 216 224 181 180 182 150 140 231 221 166 260 258 180 186 180 237 284 269 185 183 228 251 275 292 305 312 321 326 323 322 317 315 309 309 308 307 307 303 297 290 276
201 204 43 326 337 318 199 186 174 128 103 212 181 252 177 172 238 269 258 257 174 174 194 225 254 287 306 315 320 324 325 320 320 318 315 314 316 311 308 305 305 303 296 280
259 186 176 229 227 184 200 199 202 190 183 219 229 240 256 265 271 290 298 167 158 176 194 239 288 311 320 317 323 325 324 323 323 320 317 313 314 312 312 310 307 305 300 284
21 226 193 212 193 213 200 198 205 202 226 200 228 231 223 241 252 257 235 163 164 183 226 281 311 317 317 318 323 321 322 325 324 320 320 319 320 318 314 312 306 304 302 283
4 303 260 236 222 212 243 247 240 242 242 260 248 260 232 246 257 189 165 170 180 212 266 302 313 314 320 321 319 320 324 326 321 323 324 323 323 320 316 315 311 304 301 286
305 291 332 255 234 228 241 237 242 251 252 233 245 246 179 134 136 157 169 181 192 223 277 302 309 320 322 317 318 324 325 325 327 327 329 326 324 319 316 313 307 307 305 290
247 235 275 268 175 220 242 218 234 240 241 240 205 165 164 162 164 173 184 181 196 243 298 308 313 320 316 316 320 324 328 331 332 333 330 330 325 320 320 316 311 310 309 296
217 222 216 256 218 272 285 223 225 232 244 229 212 153 156 147 137 161 181 194 261 316 320 309 315 312 311 320 325 327 333 331 337 335 332 330 329 323 320 314 309 303 304 299
217 214 219 222 212 202 246 234 251 67 267 211 154 157 154 155 141 229 187 228 316 304 288 294 296 304 320 324 326 330 335 334 337 336 336 336 337 332 326 322 315 309 301 297
271 212 222 218 261 278 217 224 203 203 246 177 152 155 148 140 176 152 182 267 254 265 282 291 309 316 323 329 328 336 339 338 336 340 340 347 346 341 346 334 332 326 325 310
221 237 231 215 224 246 191 162 172 198 153 149 146 143 136 147 156 163 171 186 224 257 284 299 307 317 328 333 336 344 343 338 340 342 348 353 352 357 5 357 346 352 349 327
261 264 273 251 261 264 191 186 200 164 155 164 159 151 156 160 168 168 173 181 204 250 290 303 310 322 325 331 346 346 344 342 340 346 356 354 355 6 20 16 26 37 33 12
269 204 240 352 1 305 340 253 210 183 175 166 165 160 165 162 164 164 167 172 202 285 297 306 310 322 329 336 354 346 346 342 344 351 357 360 2 4 15 31 28 27 18 359
239 209 277 254 275 283 296 319 309 191 173 171 170 166 170 163 156 166 163 173 204 297 296 302 317 332 333 343 353 348 350 346 350 356 358 3 4 357 360 2 11 14 23 19
210 214 217 270 282 301 308 328 288 269 192 188 180 163 161 165 163 164 155 147 265 283 305 317 326 325 333 342 353 352 356 354 353 360 0 5 6 1 1 357 355 352 340 8
Height
1505 1512 1518 1508 1508 1506 1504 1506 1510 1505 1496 1499 1504 1503 1499 1494 1493 1491 1493 1497 1495 1496 1499 1501 1503 1505 1508 1509 1510 1510 1509 1508 1507 1504 1502 1499 1496 1494 1492 1490 1489 1489 1489 1489
1511 1514 1501 1498 1500 1502 1501 1504 1509 1501 1495 1497 1498 1496 1490 1488 1487 1485 1487 1490 1492 1494 1495 1497 1499 1502 1504 1506 1506 1506 1506 1505 1503 1501 1499 1495 1492 1488 1486 1484 1483 1480 1481 1481
1512 1501 1495 1496 1496 1499 1499 1504 1505 1506 1497 1495 1497 1492 1483 1477 1476 1477 1479 1481 1485 1486 1488 1493 1496 1498 1501 1502 1502 1503 1502 1501 1499 1497 1494 1491 1487 1483 1479 1477 1474 1472 1470 1472
1500 1491 1493 1495 1494 1494 1503 1492 1496 1500 1507 1518 1501 1522 1491 1478 1473 1471 1470 1472 1476 1484 1487 1489 1492 1494 1497 1498 1499 1499 1499 1496 1494 1492 1489 1485 1480 1475 1472 1469 1466 1463 1463 1461
1503 1495 1494 1495 1489 1486 1495 1490 1496 1498 1508 1511 1509 1522 1494 1477 1475 1468 1464 1467 1475 1480 1483 1486 1488 1491 1494 1495 1495 1495 1493 1491 1488 1485 1482 1478 1473 1469 1465 1462 1458 1455 1453 1452
1495 1489 1490 1488 1486 1485 1488 1494 1500 1507 1515 1537 1506 1512 1497 1477 1464 1460 1463 1467 1473 1478 1482 1484 1487 1489 1492 1492 1491 1490 1487 1484 1481 1478 1475 1470 1466 1461 1457 1454 1450 1447 1443 1441
1491 1487 1481 1481 1487 1486 1492 1510 1544 1530 1533 1530 1496 1504 1486 1462 1457 1454 1460 1467 1473 1477 1480 1483 1485 1488 1488 1487 1486 1484 1481 1477 1474 1470 1466 1463 1458 1453 1449 1446 1442 1438 1433 1429
1500 1503 1478 1474 1480 1486 1492 1502 1535 1531 1537 1516 1496 1495 1476 1466 1460 1455 1462 1469 1473 1476 1478 1481 1482 1482 1482 1482 1480 1478 1474 1471 1467 1462 1457 1453 1450 1445 1440 1436 1433 1429 1424 1420
1497 1489 1468 1467 1469 1474 1487 1499 1493 1510 1512 1521 1503 1482 1473 1468 1466 1466 1467 1470 1473 1474 1475 1476 1477 1478 1477 1476 1474 1471 1468 1466 1462 1456 1451 1444 1440 1435 1431 1426 1422 1417 1414 1412
1472 1484 1467 1465 1466 1471 1476 1480 1505 1519 1515 1521 1503 1490 1488 1474 1471 1469 1469 1469 1470 1471 1472 1473 1473 1472 1471 1470 1468 1466 1463 1460 1455 1451 1444 1436 1431 1427 1422 1416 1410 1406 1403 1401
1468 1478 1474 1463 1470 1476 1482 1486 1491 1500 1511 1519 1525 1496 1467 1467 1466 1468 1467 1467 1467 1468 1469 1469 1468 1467 1467 1466 1464 1461 1458 1454 1449 1443 1436 1430 1424 1418 1413 1406 1400 1396 1391 1389
1464 1478 1486 1469 1458 1456 1463 1472 1481 1508 1504 1507 1508 1498 1463 1462 1463 1463 1463 1463 1462 1465 1466 1465 1465 1464 1463 1461 1459 1455 1451 1447 1442 1437 1430 1423 1416 1410 1404 1397 1391 1386 1381 1379
1461 1475 1499 1482 1473 1462 1463 1465 1468 1481 1490 1490 1505 1486 1459 1460 1460 1458 1459 1458 1460 1460 1461 1461 1462 1460 1458 1456 1453 1450 1446 1442 1436 1429 1421 1414 1407 1401 1394 1388 1382 1377 1372 1367
1455 1465 1467 1470 1463 1460 1463 1456 1457 1466 1492 1474 1467 1467 1462 1457 1455 1452 1453 1456 1456 1458 1458 1458 1457 1455 1453 1450 1447 1444 1439 1434 1427 1420 1413 1406 1399 1393 1386 1380 1374 1368 1364 1359
1468 1459 1456 1451 1446 1450 1451 1451 1453 1461 1456 1469 1455 1457 1457 1452 1448 1446 1450 1452 1453 1454 1454 1453 1451 1449 1446 1444 1442 1438 1433 1428 1421 1413 1405 1398 1392 1385 1378 1371 1366 1360 1355 1350
1472 1467 1450 1440 1440 1440 1444 1445 1447 1446 1446 1445 1448 1440 1442 1440 1442 1444 1446 1449 1450 1450 1450 1448 1447 1444 1441 1439 1436 1432 1426 1421 1414 1406 1398 1391 1384 1378 1371 1364 1357 1351 1345 1341
1474 1475 1468 1448 1437 1440 1450 1437 1435 1437 1434 1436 1442 1435 1435 1437 1437 1441 1443 1445 1446 1447 1447 1445 1442 1439 1437 1436 1432 1426 1420 1414 1407 1399 1392 1385 1378 1370 1363 1356 1349 1343 1336 1331
1466 1472 1476 1463 1444 1448 1422 1425 1426 1426 1423 1423 1425 1426 1429 1432 1435 1438 1440 1441 1443 1443 1442 1440 1437 1436 1434 1432 1428 1422 1415 1408 1401 1394 1386 1377 1370 1362 1354 1349 1342 1336 1329 1324
1454 1459 1463 1451 1438 1424 1421 1416 1421 1424 1420 1414 1416 1421 1425 1429 1434 1437 1437 1437 1438 1438 1436 1434 1433 1433 1431 1428 1422 1416 1410 1404 1397 1389 1380 1371 1363 1353 1346 1340 1333 1328 1322 1317
1432 1439 1445 1447 1425 1422 1396 1408 1407 1412 1428 1408 1409 1416 1421 1425 1437 1432 1431 1433 1434 1434 1433 1432 1431 1430 1427 1423 1418 1413 1406 1398 1391 1383 1374 1365 1356 1347 1338 1330 1324 1319 1315 1310
1434 1427 1428 1428 1425 1410 1390 1393 1397 1424 1414 1402 1403 1408 1412 1419 1420 1423 1428 1430 1430 1431 1430 1429 1428 1426 1424 1419 1414 1408 1401 1394 1386 1377 1369 1360 1352 1343 1333 1324 1318 1313 1311 1308
1433 1418 1411 1413 1416 1412 1382 1392 1401 1394 1396 1400 1402 1404 1408 1413 1417 1421 1425 1427 1427 1428 1427 1427 1425 1423 1420 1416 1411 1404 1397 1390 1382 1373 1364 1356 1348 1338 1329 1321 1315 1312 1309 1309
1428 1424 1423 1418 1402 1391 1381 1379 1384 1388 1392 1399 1401 1401 1405 1410 1414 1418 1421 1423 1425 1425 1425 1424 1422 1420 1417 1413 1407 1401 1394 1386 1378 1370 1362 1355 1347 1339 1330 1323 1316 1312 1310 1308
1424 1425 1421 1414 1396 1397 1384 1382 1384 1387 1389 1395 1398 1398 1402 1406 1411 1415 1418 1420 1422 1422 1421 1421 1419 1416 1413 1408 1405 1399 1391 1384 1376 1368 1362 1354 1346 1339 1333 1326 1322 1317 1311 1307
1422 1421 1417 1410 1407 1390 1381 1384 1388 1384 1387 1392 1395 1395 1398 1403 1408 1412 1414 1417 1419 1419 1418 1418 1416 1414 1411 1406 1402 1396 1388 1382 1374 1367 1361 1355 1347 1339 1333 1328 1324 1320 1317 1310
1412 1409 1410 1402 1398 1393 1387 1385 1383 1386 1384 1386 1390 1394 1399 1401 1405 1408 1412 1414 1415 1415 1416 1416 1414 1412 1408 1404 1399 1394 1387 1381 1375 1368 1362 1357 1348 1339 1332 1328 1324 1321 1317 1311